Wind_Speed
39 36 33 30 26 24 22 20 17 16 15 14 14 14 15 17 15 13 13 10 10 10 10 1 2 3 7 13 12 14 1 3 7 2 8 4 3 7 5 4 3 4 8 5 10
41 38 35 32 29 26 23 21 19 17 16 14 14 13 14 17 17 14 12 12 13 12 4 4 8 5 7 10 8 6 4 7 7 7 7 12 5 10 4 6 2 8 11 11 10
43 40 38 34 31 28 25 22 20 18 16 15 14 13 13 14 14 3 5 6 10 8 9 1 4 5 6 11 9 7 8 5 20 26 20 12 11 13 11 4 6 9 13 8 13
45 43 39 36 33 30 26 23 20 18 17 15 14 14 12 9 2 4 8 6 1 7 3 4 6 8 4 5 14 5 15 20 27 27 21 10 25 7 15 20 22 22 22 22 17
45 43 41 37 34 30 27 24 21 19 17 15 14 14 11 6 12 13 14 9 9 10 11 6 11 13 6 6 12 8 9 18 16 17 16 18 13 12 24 24 24 26 27 27 25
46 43 41 39 34 31 27 24 21 20 17 15 14 13 10 8 5 8 11 12 10 4 5 7 9 12 11 8 6 13 20 18 24 24 22 15 19 22 34 31 29 29 32 31 24
46 44 41 39 35 30 27 24 22 20 18 15 14 13 14 26 10 13 9 11 8 8 9 10 5 2 11 9 14 18 8 10 17 16 13 24 9 15 38 36 32 9 17 20 10
43 45 41 39 35 30 27 25 22 19 17 15 12 12 13 17 10 20 23 22 15 14 15 13 6 4 4 10 12 5 6 4 8 11 19 10 16 13 25 15 14 10 9 10 16
42 43 43 39 35 30 27 24 21 18 16 13 10 7 15 12 19 21 24 21 17 17 9 10 5 4 3 3 5 5 5 7 10 14 7 4 5 6 19 15 14 18 14 17 20
42 41 42 40 35 31 28 23 18 16 12 9 11 7 19 13 6 7 8 10 21 10 15 13 6 2 4 5 8 6 7 8 6 8 15 10 8 6 21 23 21 26 24 26 29
42 40 40 40 36 33 31 23 9 5 17 15 13 14 9 7 13 12 9 10 13 12 7 15 5 10 19 15 14 10 14 15 11 11 8 10 13 10 18 25 25 26 21 21 24
43 40 38 38 37 36 33 28 19 3 9 25 32 28 26 10 6 13 15 12 12 11 10 4 15 19 13 14 15 17 19 18 8 8 11 10 18 8 9 23 34 33 27 19 4
45 42 39 38 36 36 39 34 13 5 4 12 28 32 36 35 16 17 23 14 10 11 14 14 8 21 17 17 17 17 15 10 12 6 6 10 20 8 9 19 27 7 14 17 19
44 43 41 39 38 41 39 32 17 9 3 7 13 17 28 23 10 35 30 18 7 14 14 15 21 19 18 20 16 19 11 15 9 7 11 6 20 7 14 20 14 14 17 19 17
44 47 46 49 33 45 39 28 16 5 2 6 12 10 21 25 16 24 41 32 16 10 9 11 10 19 22 22 16 16 5 4 5 11 9 3 6 4 12 17 15 10 20 18 12
42 50 47 47 37 40 32 28 18 4 11 6 13 13 11 18 8 1 33 32 10 15 17 19 21 9 9 6 4 4 3 4 5 4 13 7 8 1 6 4 6 11 19 15 8
42 42 52 52 40 38 41 32 5 6 7 9 8 13 15 13 15 7 15 23 16 7 19 23 30 23 19 15 13 4 4 2 3 2 11 9 9 12 4 10 11 12 18 15 12
38 38 45 53 39 44 52 14 7 24 21 4 10 17 20 16 14 16 11 17 25 15 3 12 10 18 17 26 14 10 9 6 6 5 4 12 6 7 8 9 19 20 18 15 11
35 34 42 52 53 56 46 20 17 10 20 7 0 15 18 17 8 18 21 20 20 27 12 7 12 11 10 26 23 12 19 12 8 7 2 4 6 3 11 8 10 13 15 13 7
36 39 43 42 60 62 23 18 17 15 5 25 15 8 13 20 16 18 14 15 22 20 23 5 6 6 6 11 19 11 6 8 5 5 4 5 7 4 8 8 7 7 9 7 7
36 17 28 43 63 44 18 18 11 21 19 16 20 10 13 11 19 16 9 13 22 22 21 21 4 5 6 6 16 14 15 5 3 6 5 1 5 4 12 8 7 4 4 8 7
17 4 28 44 14 10 16 13 23 18 29 5 3 18 17 16 16 23 15 15 17 22 28 23 7 9 9 3 10 11 13 9 6 5 3 4 8 6 9 9 11 9 13 8 5
12 7 27 48 11 9 2 15 12 15 17 13 11 7 11 5 4 8 21 1 15 8 5 14 4 6 6 9 5 11 9 14 7 5 7 4 5 7 7 6 10 8 4 4 7
10 3 5 6 6 7 7 12 10 23 12 10 11 7 4 7 3 4 6 1 7 5 15 2 1 6 7 4 3 4 5 4 2 3 3 13 18 15 8 7 8 9 10 15 10
12 2 5 5 3 6 9 7 6 8 3 15 9 16 11 6 10 5 4 2 8 8 5 5 2 3 6 6 10 5 8 14 11 9 7 14 11 15 2 4 15 16 15 12 3
11 7 6 4 22 12 10 9 15 4 7 5 5 9 12 7 5 6 5 3 3 4 5 2 2 5 5 9 4 5 10 11 13 13 13 13 14 5 17 22 20 18 19 18 20
7 15 14 10 11 14 11 9 13 9 1 2 6 6 6 6 9 9 7 6 7 5 3 4 4 3 4 2 4 5 19 21 19 17 8 10 10 7 10 12 14 17 18 16 13
Wind_Direction
226 226 225 226 226 232 236 242 249 258 267 277 289 300 308 308 305 299 293 271 261 274 296 316 248 297 263 254 266 273 277 269 254 352 316 186 157 199 198 197 219 207 254 191 176
225 225 226 226 228 229 234 241 248 255 265 276 287 299 311 317 316 298 270 256 264 274 231 345 331 342 231 268 251 169 169 238 249 320 303 315 352 343 324 240 213 232 246 197 221
225 223 224 227 228 230 233 238 245 254 263 274 286 296 310 322 324 351 358 278 266 240 212 263 323 323 277 273 254 219 214 246 279 283 314 321 324 331 341 316 278 299 309 295 210
226 223 223 224 227 231 233 238 245 251 261 272 284 293 305 311 287 308 325 346 138 183 211 355 309 295 285 280 281 265 256 243 257 275 297 294 304 282 284 280 294 297 296 295 283
226 225 223 223 224 229 233 237 245 251 259 268 282 294 303 277 255 287 294 292 253 266 280 300 297 289 246 264 295 252 259 270 288 309 299 302 297 280 274 274 277 277 272 270 268
227 225 223 223 223 226 230 235 240 250 256 265 275 285 295 256 236 268 289 274 272 280 264 270 266 291 292 283 279 303 308 299 294 292 299 282 276 276 271 272 268 267 267 264 257
228 224 221 222 222 224 227 232 235 243 253 262 274 284 272 252 225 208 230 266 236 213 234 240 313 278 322 323 334 316 301 308 283 282 263 264 276 248 261 266 260 310 292 255 207
227 224 220 219 219 220 225 229 235 241 248 258 270 283 263 272 245 240 237 243 259 253 233 234 267 287 299 300 323 316 299 292 271 246 255 229 261 254 259 244 259 280 269 247 256
225 222 220 218 217 217 221 225 229 238 246 253 270 281 268 275 251 253 238 235 233 245 253 257 281 259 280 227 314 241 255 224 280 258 241 166 264 286 330 294 272 276 263 258 257
223 220 216 216 213 212 213 218 222 234 242 247 239 290 254 244 245 237 225 233 214 201 219 220 216 231 213 180 220 211 221 261 248 299 318 307 292 292 308 297 280 273 272 273 271
220 219 214 212 209 206 200 190 189 223 215 207 199 207 259 204 200 218 219 196 206 223 189 186 178 206 218 209 235 265 280 281 285 288 305 297 304 328 326 320 306 298 288 282 275
216 215 210 208 205 205 206 190 194 268 248 242 243 245 245 208 291 227 175 181 192 204 197 245 224 221 225 231 232 237 251 263 266 300 293 303 292 294 297 280 275 273 276 291 233
213 210 207 205 202 202 204 198 158 334 276 243 238 241 235 238 242 219 186 195 199 207 196 214 215 208 218 233 241 242 246 267 275 277 286 318 291 282 272 295 296 265 127 106 94
214 206 203 198 198 199 200 198 199 61 304 248 211 243 219 212 250 221 202 181 216 212 219 238 232 242 218 233 234 246 246 258 280 295 281 170 290 249 276 276 260 136 117 111 106
218 202 201 198 190 193 192 183 187 129 287 215 201 206 192 182 152 211 203 204 214 190 194 220 192 210 228 235 240 264 264 298 299 289 308 170 288 333 283 279 284 130 124 117 116
223 205 198 195 194 194 179 155 161 75 240 253 150 168 139 195 224 189 193 207 213 239 257 247 269 262 245 265 226 51 31 332 300 267 258 166 211 281 279 154 99 118 130 128 143
217 218 198 193 185 181 162 153 104 201 192 194 173 161 161 176 211 193 181 189 201 183 231 246 249 257 266 276 265 151 137 271 275 234 252 183 229 233 229 166 151 145 138 141 153
211 221 215 198 186 176 165 154 182 224 211 136 150 173 190 172 212 215 185 203 210 230 178 214 261 206 211 224 214 196 176 176 201 216 259 241 229 240 163 102 129 142 152 162 158
200 211 212 198 184 173 167 185 206 184 193 224 25 184 206 204 166 202 224 215 207 208 209 198 235 202 201 216 201 187 210 195 240 277 268 244 286 141 116 105 99 100 128 148 149
199 203 209 211 189 170 178 190 219 223 176 197 212 200 193 200 207 194 192 222 219 222 222 256 286 217 205 181 210 188 151 189 204 217 239 240 252 224 137 138 125 141 146 157 190
192 188 190 199 182 177 186 204 211 211 225 186 215 206 215 191 213 207 213 218 201 213 211 224 257 289 144 187 187 187 212 170 188 195 180 197 255 166 143 144 143 99 113 209 235
190 174 171 186 187 192 188 194 206 202 216 227 258 212 213 217 222 214 227 187 4 208 206 207 226 233 220 251 171 197 196 179 198 208 201 170 243 164 132 123 106 75 82 72 34
165 123 169 185 193 182 217 210 190 197 210 184 206 221 219 214 229 222 216 198 36 48 256 201 191 209 194 254 241 192 182 198 198 149 199 197 237 200 27 59 79 41 59 29 339
157 137 101 186 96 145 170 196 195 204 212 192 206 215 125 201 180 245 166 30 69 83 3 51 205 198 186 159 134 62 323 352 16 114 249 244 275 258 291 327 353 349 346 326 290
184 150 156 153 150 150 168 161 138 169 204 195 203 196 170 183 183 204 133 126 61 85 42 352 183 354 298 334 86 166 260 288 296 283 243 276 249 285 246 311 28 25 1 16 335
146 145 146 162 149 151 156 191 178 160 158 182 183 181 168 153 174 166 124 115 135 96 121 100 323 359 310 302 341 300 280 270 260 264 267 279 272 312 76 57 34 50 52 48 52
142 150 151 144 163 168 176 165 190 131 312 102 146 135 150 131 96 89 89 141 149 149 138 126 154 129 259 301 343 252 232 246 255 257 243 253 271 48 41 57 70 69 66 61 47
Height
1494 1497 1501 1504 1506 1509 1512 1514 1515 1516 1517 1517 1517 1516 1515 1513 1512 1512 1510 1511 1511 1512 1514 1513 1513 1512 1514 1513 1514 1514 1522 1526 1517 1507 1505 1495 1494 1493 1494 1495 1496 1497 1498 1497 1498
1487 1492 1496 1499 1503 1505 1508 1510 1512 1513 1514 1515 1515 1515 1514 1511 1509 1507 1508 1508 1509 1511 1513 1512 1512 1511 1512 1510 1511 1510 1522 1516 1504 1502 1503 1499 1497 1496 1497 1494 1494 1496 1497 1496 1495
1480 1485 1490 1495 1499 1502 1504 1507 1509 1511 1512 1512 1512 1512 1512 1511 1508 1506 1506 1507 1507 1508 1510 1511 1511 1512 1511 1509 1505 1503 1511 1504 1500 1499 1498 1497 1495 1493 1494 1493 1494 1495 1496 1497 1496
1473 1479 1484 1489 1494 1498 1501 1503 1506 1507 1509 1510 1510 1510 1510 1510 1511 1505 1505 1506 1507 1508 1510 1510 1511 1511 1510 1509 1503 1505 1498 1499 1496 1496 1493 1494 1493 1491 1492 1489 1493 1492 1492 1492 1493
1466 1473 1479 1484 1489 1494 1498 1500 1503 1505 1506 1507 1508 1508 1508 1508 1503 1503 1503 1505 1506 1507 1508 1510 1510 1510 1509 1504 1502 1499 1496 1495 1493 1491 1492 1491 1489 1490 1484 1487 1488 1488 1487 1487 1487
1459 1466 1473 1479 1484 1489 1494 1497 1499 1502 1504 1505 1505 1505 1506 1506 1500 1501 1500 1502 1503 1504 1506 1508 1509 1508 1506 1502 1504 1497 1493 1490 1489 1487 1488 1488 1485 1487 1479 1481 1481 1481 1480 1479 1481
1452 1459 1467 1473 1479 1484 1489 1493 1495 1498 1501 1502 1503 1501 1501 1495 1498 1497 1497 1498 1500 1501 1504 1506 1506 1505 1505 1503 1501 1498 1497 1490 1485 1485 1485 1480 1488 1482 1473 1473 1474 1475 1470 1474 1477
1445 1453 1460 1468 1474 1480 1485 1489 1492 1495 1498 1499 1500 1499 1492 1490 1491 1491 1494 1494 1497 1499 1501 1502 1504 1504 1505 1504 1500 1501 1500 1506 1480 1479 1474 1481 1488 1470 1468 1467 1467 1469 1470 1471 1472
1437 1445 1454 1462 1469 1475 1480 1485 1488 1493 1495 1496 1499 1498 1488 1484 1484 1485 1488 1489 1493 1496 1498 1500 1504 1504 1506 1508 1512 1502 1510 1501 1489 1471 1476 1475 1479 1468 1468 1467 1466 1464 1465 1466 1465
1430 1438 1447 1457 1464 1470 1476 1482 1486 1490 1493 1494 1495 1500 1484 1479 1479 1480 1483 1486 1490 1493 1498 1498 1502 1502 1504 1509 1515 1504 1503 1498 1494 1477 1469 1472 1469 1465 1463 1462 1462 1461 1461 1460 1460
1423 1432 1441 1451 1459 1464 1470 1479 1488 1489 1487 1481 1478 1475 1475 1475 1476 1478 1482 1486 1490 1492 1492 1492 1501 1502 1492 1491 1491 1492 1492 1490 1483 1473 1473 1474 1467 1466 1463 1462 1459 1456 1454 1453 1453
1415 1425 1436 1446 1452 1457 1465 1469 1474 1480 1475 1473 1474 1474 1472 1475 1475 1477 1479 1483 1488 1487 1489 1495 1490 1484 1486 1486 1487 1489 1490 1487 1478 1473 1473 1474 1466 1465 1464 1458 1452 1448 1448 1449 1448
1407 1418 1430 1440 1449 1452 1454 1465 1474 1473 1474 1465 1463 1463 1466 1471 1471 1472 1476 1476 1480 1484 1481 1481 1472 1475 1477 1478 1482 1480 1482 1481 1480 1474 1470 1473 1459 1463 1456 1450 1446 1442 1445 1447 1447
1397 1411 1422 1435 1446 1444 1449 1463 1471 1475 1480 1455 1450 1445 1453 1461 1458 1467 1469 1471 1474 1475 1479 1472 1469 1471 1469 1473 1475 1478 1469 1469 1473 1481 1488 1472 1474 1466 1454 1442 1440 1444 1443 1444 1446
1389 1403 1412 1422 1427 1435 1446 1461 1471 1478 1490 1434 1431 1431 1432 1444 1445 1450 1460 1464 1463 1468 1471 1457 1457 1462 1461 1459 1463 1464 1463 1468 1471 1477 1482 1478 1490 1461 1448 1441 1430 1436 1440 1441 1445
1382 1393 1406 1418 1422 1432 1447 1458 1472 1487 1485 1425 1417 1424 1433 1441 1441 1441 1449 1456 1463 1465 1460 1453 1453 1453 1453 1453 1456 1458 1463 1467 1471 1477 1485 1479 1485 1468 1453 1442 1436 1434 1438 1440 1446
1378 1384 1395 1406 1410 1428 1443 1454 1477 1478 1422 1413 1418 1419 1428 1435 1441 1439 1444 1450 1458 1469 1464 1455 1447 1448 1453 1458 1455 1458 1469 1492 1498 1497 1480 1461 1471 1464 1438 1433 1430 1433 1437 1440 1445
1373 1381 1384 1392 1407 1420 1432 1446 1453 1413 1413 1396 1405 1414 1420 1426 1432 1435 1439 1446 1445 1445 1444 1456 1452 1442 1436 1439 1448 1454 1464 1486 1498 1497 1477 1453 1465 1441 1428 1431 1432 1434 1439 1443 1446
1364 1371 1378 1384 1394 1406 1419 1426 1404 1398 1403 1408 1409 1415 1419 1419 1424 1433 1433 1433 1427 1436 1446 1443 1437 1419 1419 1424 1438 1445 1453 1454 1471 1465 1476 1464 1442 1431 1427 1432 1432 1434 1439 1443 1445
1354 1364 1367 1382 1385 1391 1402 1403 1398 1398 1395 1406 1409 1404 1410 1414 1422 1426 1427 1415 1424 1424 1430 1427 1437 1415 1409 1415 1422 1429 1438 1464 1466 1481 1485 1464 1456 1448 1437 1435 1434 1436 1438 1440 1442
1350 1358 1357 1374 1378 1379 1383 1393 1393 1391 1394 1399 1398 1401 1407 1412 1411 1412 1410 1409 1409 1414 1419 1426 1431 1420 1409 1414 1419 1432 1437 1441 1450 1459 1479 1479 1463 1425 1431 1433 1437 1437 1439 1440 1441
1339 1347 1353 1364 1367 1368 1377 1378 1388 1390 1393 1398 1398 1396 1402 1405 1405 1406 1405 1406 1405 1404 1411 1412 1421 1427 1413 1405 1406 1415 1426 1436 1459 1453 1454 1461 1458 1424 1428 1430 1433 1437 1439 1438 1439
1333 1340 1346 1355 1356 1367 1375 1378 1383 1385 1386 1393 1397 1394 1397 1400 1407 1400 1400 1404 1408 1412 1406 1409 1421 1430 1422 1418 1405 1413 1418 1423 1432 1441 1452 1467 1448 1419 1422 1430 1433 1435 1435 1437 1438
1332 1341 1345 1348 1353 1363 1372 1371 1378 1380 1382 1385 1388 1393 1397 1401 1399 1398 1401 1405 1406 1412 1416 1415 1416 1416 1427 1419 1417 1428 1426 1425 1434 1454 1451 1440 1434 1427 1432 1433 1433 1434 1435 1434 1435
1322 1331 1333 1345 1355 1361 1365 1368 1372 1377 1380 1380 1384 1384 1389 1400 1397 1402 1400 1405 1405 1410 1417 1420 1418 1416 1410 1406 1417 1433 1434 1430 1435 1439 1448 1439 1440 1424 1431 1431 1437 1435 1435 1435 1436
1319 1326 1334 1338 1347 1357 1361 1365 1367 1375 1376 1378 1381 1381 1382 1392 1392 1398 1398 1403 1405 1410 1416 1421 1427 1422 1418 1410 1415 1427 1425 1427 1429 1431 1430 1432 1428 1425 1433 1435 1436 1437 1437 1438 1439
1317 1319 1322 1335 1340 1348 1352 1359 1361 1366 1374 1374 1376 1378 1383 1388 1391 1396 1400 1403 1406 1410 1414 1419 1423 1428 1424 1417 1422 1434 1423 1423 1419 1418 1424 1434 1428 1432 1432 1435 1437 1439 1439 1441 1442